26P/Grigg-Skjellerup (2002)

Japanese version
Home page
Updated on August 20, 2000

---------------------------------------------------------------------

* Profile

* Orbital Elements

Epoch 2002 Nov. 22.0 TT = JDT 2452600.5  
T 2002 Nov. 29.71893 TT                                 Muraoka 
q   1.1178755            (2000.0)            P               Q
n   0.18562163     Peri.    1.62390     -0.83631606     +0.51045835
a   3.0435726      Node   211.73980     -0.50719620     -0.85888208
e   0.6327094      Incl.   22.34729     -0.20815249     +0.04187898
P   5.31
From 184 observations 1961-1997, mean residual 0".86.
Nongravitational
   parameters A1 = 0.00 +/- 0.00, A2 = -0.0011 +/- 0.0000.

* Finding Charts

* Magnitudes Graph

        m1 = 15.0 + 5 log d + 10.0 log r  [   ,-45]  (             - 2002 Oct. 15)
        m1 = 12.0 + 5 log d + 40.0 log r  [-45, 45]  (2002 Oct. 15 - 2003 Jan. 13)
        m1 = 15.0 + 5 log d + 10.0 log r  [ 45,   ]  (2003 Jan. 13 -             )

---------------------------------------------------------------------

The orbital elements are calculated by Kenji Muraoka.
The charts are made with StellaNavigator Ver.2.0 for Windows (AstroArts / ASCII).
The magnitudes graphs are made with Comet for Windows.

---------------------------------------------------------------------

Copyright(C) Seiichi Yoshida (comet@aerith.net). All rights reserved.